This demonstration page uses our WeatherBlox Daily Observations layout. Learn more.

Left ArrowRight Arrow

Hourly Observations for June 23, 2017

Temp ( °F °C ) Dew Point ( °F °C ) Humidity (%) Winds ( mph kmh ) Pressure ( in mb ) Visibility ( mi km ) Precip ( " mm )
12:59 am 00:59 Cloudy 80 26.7 71 21.7 74 74 WSW 8 13 30.00 1016 10 16 0.00 0.00
1:59 am 01:59 Cloudy 79 26.1 72 22.2 79 79 WSW 10 17 29.99 1016 10 16 0.00 0.00
2:59 am 02:59 Cloudy 78 25.6 71 21.7 79 79 SW 8 13 29.98 1015 10 16 0.00 0.00
3:59 am 03:59 Mostly Cloudy 77 25 71 21.7 82 82 SW 8 13 29.97 1015 10 16 0.00 0.00
4:59 am 04:59 Cloudy 78 25.6 69 20.6 74 74 WSW 8 13 29.97 1015 10 16 0.00 0.00
5:59 am 05:59 Cloudy 77 25 70 21.1 79 79 SW 12 19 29.97 1015 10 16 0.00 0.00
6:59 am 06:59 Cloudy with Light Rain 76 24.4 70 21.1 82 82 SW 6 9 29.97 1015 8 13 0.00 0.03
7:59 am 07:59 Cloudy with Light Rain 77 25 70 21.1 79 79 SW 7 11 29.98 1015 8 13 0.00 0.03
8:59 am 08:59 Cloudy 78 25.6 71 21.7 79 79 SSW 9 15 29.98 1015 9 14 0.00 0.03
9:59 am 09:59 Cloudy 80 26.7 73 22.8 79 79 SW 10 17 29.96 1015 8 13 0.00 0.00
10:59 am 10:59 Mostly Cloudy 83 28.3 72 22.2 70 70 SW 8 13 29.95 1014 9 14 0.00 0.00
11:59 am 11:59 Partly Cloudy 86 30 73 22.8 65 65 SW 15 24 29.92 1013 10 16 0.00 0.00
12:59 pm 12:59 Mostly Cloudy 86 30 74 23.3 67 67 SSW 15 24 29.90 1013 9 14 0.00 0.00
1:59 pm 13:59 Partly Cloudy 88 31.1 74 23.3 63 63 SSW 15 24 29.89 1012 9 14 0.00 0.00
2:59 pm 14:59 Partly Cloudy 89 31.7 74 23.3 61 61 SW 15 24 29.87 1011 9 14 0.00 0.00
3:59 pm 15:59 Partly Cloudy 90 32.2 73 22.8 58 58 SW 14 22 29.85 1011 9 14 0.00 0.00
4:59 pm 16:59 Partly Cloudy 90 32.2 73 22.8 58 58 SW 13 20 29.84 1011 9 14 0.00 0.00
5:59 pm 17:59 Partly Cloudy 89 31.7 73 22.8 59 59 SW 10 17 29.82 1010 9 14 0.00 0.00
6:59 pm 18:59 Partly Cloudy 89 31.7 73 22.8 59 59 SW 12 19 29.81 1010 8 13 0.00 0.00
7:59 pm 19:59 Mostly Sunny 87 30.6 72 22.2 61 61 SW 13 20 29.81 1010 8 13 0.00 0.00
8:59 pm 20:59 Partly Cloudy 86 30 71 21.7 61 61 SSW 13 20 29.82 1010 9 14 0.00 0.00
9:59 pm 21:59 Mostly Clear 85 29.4 57 13.9 39 39 SSW 13 20 29.83 1010 9 14 0.00 0.00
10:59 pm 22:59 Clear 83 28.3 53 11.7 36 36 SSW 14 22 29.83 1010 9 14 0.00 0.00
11:59 pm 23:59 Partly Cloudy 83 28.3 72 22.2 70 70 SSW 13 20 29.83 1010 9 14 0.00 0.00

Powered by AerisWeather